Location: Lugrin
(46.4033°N, 6.6674°E)
Time: 09:04:56
(UTC+00:00)

N. Korean satellite - Pass Details

Date: 29 November 2020
Orbit: 453 x 502 km, 97.2° (Epoch: 16 January)

Event Time Altitude Azimuth Distance (km) Brightness Sun altitude
Rises 17:12:56 0° 208° (SSW) 2,456 10.9 -14.0°
Maximum altitude 17:17:39 15° 269° (W) 1,349 9.9 -14.8°
Drops below altitude 10° 17:19:38 10° 304° (NW) 1,611 9.8 -15.1°
Sets 17:22:27 0° 330° (NNW) 2,502 10.4 -15.6°
